Date String (YYYY-MM-DD hh:mm:ss) UTC,Instrument flags,Ambient pressure (hPa),Sample flow (lpm),Bypass flow (lpm),Sample temperature (°C),Ambient temperature (°C),ASC tube jacket temperature (°C),LED temperature (°C),Box temperature (°C),Sample RH (%),Span deviation,Mass concentration (μg/m³),Mass concentration (μg/m³),Mass concentration (μg/m³)
DateTimeUTC,F1_M11,P_M11,Q1_M11,Q2_M11,T1_M11,T2_M11,T3_M11,T4_M11,T5_M11,U1_M11,ZSPAN_M11,X0_M11,X2_M11,X1_M11
2022-04-04 22:00:00,,0813.1,4.99,0.00,27.5,26.7,00.0,36.4,29.3,06.5,0000.0,0013.67,0004.43,0002.31
2022-04-04 22:01:00,,0813.2,4.99,0.00,27.5,26.7,00.0,36.5,29.3,06.6,0000.0,0014.02,0004.44,0002.32
2022-04-04 22:02:00,,0813.2,5.02,0.00,27.6,26.7,00.0,36.5,29.3,06.6,0000.0,0014.91,0004.49,0002.33
2022-04-04 22:03:00,,0813.1,4.99,0.00,27.6,26.7,00.0,36.5,29.3,06.8,0000.0,0015.51,0004.51,0002.32
2022-04-04 22:04:00,,0813.0,4.99,0.00,27.5,26.7,00.0,36.5,29.3,06.8,0000.0,0015.66,0004.57,0002.32
2022-04-04 22:05:00,,0812.9,5.01,0.00,27.5,26.7,00.0,36.5,29.3,06.6,0000.0,0015.91,0004.56,0002.33
2022-04-04 22:06:00,,0813.0,4.99,0.00,27.6,26.7,00.0,36.5,29.3,06.4,0000.0,0015.69,0004.54,0002.32
2022-04-04 22:07:00,,0813.1,5.00,0.00,27.6,26.7,00.0,36.5,29.3,06.4,0000.0,0015.33,0004.51,0002.32
2022-04-04 22:08:00,,0813.1,5.00,0.00,27.6,26.7,00.0,36.5,29.3,06.4,0000.0,0015.23,0004.49,0002.32
2022-04-04 22:09:00,,0813.1,5.00,0.00,27.6,26.7,00.0,36.5,29.3,06.3,0000.0,0014.55,0004.49,0002.32
2022-04-04 22:10:00,,0813.0,5.02,0.00,27.6,26.7,00.0,36.5,29.3,06.4,0000.0,0014.41,0004.54,0002.32
2022-04-04 22:11:00,,0813.0,4.99,0.00,27.6,26.7,00.0,36.5,29.3,06.4,0000.0,0014.41,0004.58,0002.33
2022-04-04 22:12:00,,0813.0,5.00,0.00,27.6,26.7,00.0,36.5,29.3,06.4,0000.0,0014.53,0004.64,0002.34
2022-04-04 22:13:00,,0813.2,5.01,0.00,27.6,26.7,00.0,36.5,29.4,06.5,0000.0,0014.22,0004.63,0002.34
2022-04-04 22:14:00,,0813.1,4.99,0.00,27.6,26.7,00.0,36.5,29.3,06.6,0000.0,0013.99,0004.66,0002.36
2022-04-04 22:15:00,,0812.9,5.01,0.00,27.6,26.7,00.0,36.5,29.3,06.7,0000.0,0013.78,0004.65,0002.37
2022-04-04 22:16:00,,0813.0,4.99,0.00,27.6,26.7,00.0,36.5,29.4,06.3,0000.0,0013.42,0004.60,0002.36
2022-04-04 22:17:00,,0813.2,5.00,0.00,27.6,26.7,00.0,36.5,29.4,06.3,0000.0,0013.35,0004.60,0002.35
2022-04-04 22:18:00,,0813.1,5.01,0.00,27.6,26.7,00.0,36.5,29.3,06.3,0000.0,0012.78,0004.52,0002.34
2022-04-04 22:19:00,,0813.0,4.98,0.00,27.6,26.7,00.0,36.5,29.3,06.4,0000.0,0012.67,0004.51,0002.33
2022-04-04 22:20:00,,0812.9,5.01,0.00,27.6,26.7,00.0,36.5,29.3,06.5,0000.0,0012.79,0004.53,0002.33
2022-04-04 22:21:00,,0812.9,4.98,0.00,27.6,26.7,00.0,36.5,29.3,06.5,0000.0,0012.21,0004.49,0002.32
2022-04-04 22:22:00,,0812.9,5.03,0.00,27.6,26.7,00.0,36.5,29.4,06.6,0000.0,0012.20,0004.47,0002.30
2022-04-04 22:23:00,,0813.0,4.99,0.00,27.6,26.7,00.0,36.5,29.3,06.6,0000.0,0012.13,0004.40,0002.28
2022-04-04 22:24:00,,0812.9,5.00,0.00,27.6,26.7,00.0,36.5,29.3,06.7,0000.0,0011.83,0004.36,0002.29
2022-04-04 22:25:00,,0812.9,4.99,0.00,27.6,26.7,00.0,36.5,29.3,06.6,0000.0,0011.43,0004.41,0002.28
2022-04-04 22:26:00,,0812.9,5.01,0.00,27.6,26.7,00.0,36.5,29.4,06.3,0000.0,0011.45,0004.40,0002.30
2022-04-04 22:27:00,,0812.8,5.00,0.00,27.6,26.7,00.0,36.5,29.4,06.4,0000.0,0012.05,0004.44,0002.29
2022-04-04 22:28:00,,0812.8,4.98,0.00,27.6,26.7,00.0,36.5,29.3,06.6,0000.0,0012.04,0004.44,0002.28
2022-04-04 22:29:00,,0812.8,5.02,0.00,27.6,26.7,00.0,36.6,29.3,06.6,0000.0,0012.13,0004.47,0002.28
2022-04-04 22:30:00,,0812.8,4.99,0.00,27.6,26.7,00.0,36.6,29.3,06.6,0000.0,0012.04,0004.42,0002.28
2022-04-04 22:31:00,,0812.8,4.99,0.00,27.6,26.7,00.0,36.6,29.3,06.6,0000.0,0012.12,0004.40,0002.28
2022-04-04 22:32:00,,0812.7,5.01,0.00,27.6,26.7,00.0,36.6,29.4,06.7,0000.0,0011.88,0004.36,0002.28
2022-04-04 22:33:00,,0812.8,4.99,0.00,27.6,26.8,00.0,36.6,29.4,06.6,0000.0,0011.52,0004.33,0002.28
2022-04-04 22:34:00,,0812.8,5.01,0.00,27.6,26.8,00.0,36.6,29.3,06.5,0000.0,0011.30,0004.30,0002.25
2022-04-04 22:35:00,,0812.8,5.00,0.00,27.6,26.8,00.0,36.6,29.4,06.5,0000.0,0011.54,0004.30,0002.24
2022-04-04 22:36:00,,0812.8,5.00,0.00,27.6,26.8,00.0,36.6,29.4,06.6,0000.0,0011.58,0004.21,0002.22
2022-04-04 22:37:00,,0812.8,5.00,0.00,27.6,26.8,00.0,36.6,29.4,06.8,0000.0,0011.30,0004.17,0002.20
2022-04-04 22:38:00,,0812.8,5.01,0.00,27.6,26.8,00.0,36.6,29.4,06.5,0000.0,0011.21,0004.10,0002.20
2022-04-04 22:39:00,,0812.8,4.99,0.00,27.6,26.8,00.0,36.6,29.4,06.2,0000.0,0011.52,0004.12,0002.20
2022-04-04 22:40:00,,0812.9,5.01,0.00,27.7,26.8,00.0,36.6,29.4,06.2,0000.0,0011.45,0004.05,0002.18
2022-04-04 22:41:00,,0812.8,4.99,0.00,27.7,26.8,00.0,36.6,29.4,06.2,0000.0,0012.09,0004.09,0002.16
2022-04-04 22:42:00,,0812.9,5.01,0.00,27.7,26.9,00.0,36.6,29.5,06.0,0000.0,0011.44,0004.07,0002.14
2022-04-04 22:43:00,,0812.9,5.01,0.00,27.7,26.9,00.0,36.6,29.5,05.9,0000.0,0011.33,0004.04,0002.10
2022-04-04 22:44:00,,0812.8,5.00,0.00,27.7,26.8,00.0,36.6,29.4,06.0,0000.0,0011.31,0004.02,0002.09
2022-04-04 22:45:00,,0812.8,4.99,0.00,27.6,26.8,00.0,36.6,29.4,05.9,0000.0,0011.32,0004.05,0002.09
2022-04-04 22:46:00,,0812.8,5.00,0.00,27.6,26.8,00.0,36.6,29.4,05.9,0000.0,0010.87,0004.01,0002.09
2022-04-04 22:47:00,,0812.8,5.01,0.00,27.6,26.8,00.0,36.6,29.3,06.0,0000.0,0010.73,0004.01,0002.08
2022-04-04 22:48:00,,0812.6,4.99,0.00,27.6,26.8,00.0,36.6,29.3,06.2,0000.0,0011.13,0004.03,0002.06
2022-04-04 22:49:00,,0812.6,5.01,0.00,27.6,26.8,00.0,36.6,29.3,06.0,0000.0,0010.68,0004.03,0002.04
2022-04-04 22:50:00,,0812.6,4.98,0.00,27.6,26.8,00.0,36.6,29.4,05.9,0000.0,0010.53,0004.06,0002.01
2022-04-04 22:51:00,,0812.6,5.01,0.00,27.6,26.8,00.0,36.6,29.4,06.0,0000.0,0010.63,0004.09,0002.01
2022-04-04 22:52:00,,0812.6,5.00,0.00,27.6,26.7,00.0,36.6,29.3,05.9,0000.0,0010.37,0004.09,0002.00
2022-04-04 22:53:00,,0812.5,5.00,0.00,27.6,26.7,00.0,36.6,29.3,05.7,0000.0,0010.44,0004.09,0001.98
2022-04-04 22:54:00,,0812.6,5.00,0.00,27.6,26.7,00.0,36.6,29.3,05.6,0000.0,0010.69,0004.14,0001.98
2022-04-04 22:55:00,,0812.6,4.99,0.00,27.5,26.7,00.0,36.6,29.3,05.6,0000.0,0011.07,0004.16,0001.96
2022-04-04 22:56:00,,0812.4,5.02,0.00,27.5,26.7,00.0,36.6,29.3,05.7,0000.0,0010.91,0004.13,0001.96
2022-04-04 22:57:00,,0812.5,4.98,0.00,27.5,26.7,00.0,36.6,29.3,05.7,0000.0,0010.98,0004.16,0001.96
2022-04-04 22:58:00,,0812.5,5.00,0.00,27.5,26.7,00.0,36.6,29.3,05.8,0000.0,0010.97,0004.21,0001.95
2022-04-04 22:59:00,,0812.4,4.99,0.00,27.5,26.7,00.0,36.6,29.3,05.9,0000.0,0010.68,0004.20,0001.92
